Time,TemperatureF,DewpointF,PressureIn,WindDirection,WindDirectionDegrees,WindSpeedMPH,WindSpeedGustMPH,Humidity,HourlyPrecipIn,Conditions,Clouds,dailyrainin,SoftwareType,DateUTC
2013-03-29 00:02:00,30.0,26.4,30.25,SW,235,0.0,1.0,86,0.00,,,0.00,meteohub,2013-03-29 04:02:00,
2013-03-29 00:07:00,29.8,26.2,30.26,SW,215,0.0,1.0,86,0.00,,,0.00,meteohub,2013-03-29 04:07:00,
2013-03-29 00:12:00,29.8,26.4,30.26,WSW,256,0.0,1.0,87,0.00,,,0.00,meteohub,2013-03-29 04:12:00,
2013-03-29 00:22:00,29.5,26.1,30.26,West,259,0.0,1.0,87,0.00,,,0.00,meteohub,2013-03-29 04:22:00,
2013-03-29 00:27:00,29.3,25.9,30.26,West,259,0.0,1.0,87,0.00,,,0.00,meteohub,2013-03-29 04:27:00,
2013-03-29 00:32:00,29.1,25.7,30.26,West,259,0.0,1.0,87,0.00,,,0.00,meteohub,2013-03-29 04:32:00,
2013-03-29 00:37:00,29.1,25.7,30.26,West,261,0.0,1.0,87,0.00,,,0.00,meteohub,2013-03-29 04:37:00,
2013-03-29 00:42:00,28.9,25.5,30.26,WSW,253,0.0,1.0,87,0.00,,,0.00,meteohub,2013-03-29 04:42:00,
2013-03-29 00:52:00,28.8,25.7,30.26,WSW,253,0.0,1.0,88,0.00,,,0.00,meteohub,2013-03-29 04:52:00,
2013-03-29 01:02:00,28.2,25.2,30.27,WSW,253,0.0,1.0,88,0.00,,,0.00,meteohub,2013-03-29 05:02:00,
2013-03-29 01:07:00,28.2,25.3,30.27,SW,222,0.0,1.0,89,0.00,,,0.00,meteohub,2013-03-29 05:07:00,
2013-03-29 01:12:00,28.2,25.3,30.26,WSW,253,0.0,1.0,89,0.00,,,0.00,meteohub,2013-03-29 05:12:00,
2013-03-29 01:17:00,28.6,25.7,30.26,WSW,256,0.0,1.0,89,0.00,,,0.00,meteohub,2013-03-29 05:17:00,
2013-03-29 01:22:00,28.2,25.2,30.27,WSW,255,0.0,1.0,88,0.00,,,0.00,meteohub,2013-03-29 05:22:00,
2013-03-29 01:27:00,28.0,25.0,30.27,WSW,255,0.0,1.0,88,0.00,,,0.00,meteohub,2013-03-29 05:27:00,
2013-03-29 01:32:00,27.9,25.0,30.27,WSW,256,0.0,1.0,89,0.00,,,0.00,meteohub,2013-03-29 05:32:00,
2013-03-29 01:37:00,27.9,25.0,30.27,WSW,256,1.0,1.0,89,0.00,,,0.00,meteohub,2013-03-29 05:37:00,
2013-03-29 01:42:00,27.7,24.6,30.27,WSW,255,0.0,1.0,88,0.00,,,0.00,meteohub,2013-03-29 05:42:00,
2013-03-29 01:52:00,27.3,24.8,30.27,SW,226,0.0,1.0,90,0.00,,,0.00,meteohub,2013-03-29 05:52:00,
2013-03-29 01:57:00,27.3,24.8,30.27,SW,226,0.0,1.0,90,0.00,,,0.00,meteohub,2013-03-29 05:57:00,
2013-03-29 02:02:00,27.3,24.8,30.27,WSW,239,0.0,1.0,90,0.00,,,0.00,meteohub,2013-03-29 06:02:00,
2013-03-29 02:07:00,27.3,24.8,30.27,WSW,240,0.0,1.0,90,0.00,,,0.00,meteohub,2013-03-29 06:07:00,
2013-03-29 02:12:00,27.1,24.6,30.27,WSW,237,0.0,1.0,90,0.00,,,0.00,meteohub,2013-03-29 06:12:00,
2013-03-29 02:17:00,27.1,24.6,30.27,SSW,208,0.0,0.0,90,0.00,,,0.00,meteohub,2013-03-29 06:17:00,
2013-03-29 02:27:00,27.0,24.4,30.27,West,277,0.0,1.0,90,0.00,,,0.00,meteohub,2013-03-29 06:27:00,
2013-03-29 02:37:00,27.0,24.4,30.27,SW,233,0.0,1.0,90,0.00,,,0.00,meteohub,2013-03-29 06:37:00,
2013-03-29 02:42:00,27.0,24.4,30.27,SW,233,0.0,1.0,90,0.00,,,0.00,meteohub,2013-03-29 06:42:00,
2013-03-29 02:47:00,26.8,24.3,30.27,SW,233,0.0,0.0,90,0.00,,,0.00,meteohub,2013-03-29 06:47:00,
2013-03-29 02:52:00,26.8,24.4,30.27,WSW,239,0.0,0.0,91,0.00,,,0.00,meteohub,2013-03-29 06:52:00,
2013-03-29 03:02:00,26.8,24.4,30.27,WSW,242,0.0,0.0,91,0.00,,,0.00,meteohub,2013-03-29 07:02:00,
2013-03-29 03:07:00,26.8,24.3,30.27,WSW,242,0.0,0.0,90,0.00,,,0.00,meteohub,2013-03-29 07:07:00,
2013-03-29 03:12:00,26.8,24.4,30.27,West,278,1.0,0.0,91,0.00,,,0.00,meteohub,2013-03-29 07:12:00,
2013-03-29 03:22:00,26.2,23.7,30.27,WSW,242,0.0,1.0,90,0.00,,,0.00,meteohub,2013-03-29 07:22:00,
2013-03-29 03:27:00,26.1,23.5,30.27,WSW,242,0.0,1.0,90,0.00,,,0.00,meteohub,2013-03-29 07:27:00,
2013-03-29 03:32:00,25.9,23.4,30.27,WSW,242,0.0,1.0,90,0.00,,,0.00,meteohub,2013-03-29 07:32:00,
2013-03-29 03:42:00,25.9,23.5,30.26,WSW,243,0.0,1.0,91,0.00,,,0.00,meteohub,2013-03-29 07:42:00,
2013-03-29 03:47:00,25.7,23.4,30.26,WSW,242,0.0,1.0,91,0.00,,,0.00,meteohub,2013-03-29 07:47:00,
2013-03-29 03:52:00,25.5,23.2,30.26,WSW,242,0.0,0.0,91,0.00,,,0.00,meteohub,2013-03-29 07:52:00,
2013-03-29 03:57:00,25.5,23.2,30.26,WSW,242,0.0,0.0,91,0.00,,,0.00,meteohub,2013-03-29 07:57:00,
2013-03-29 04:02:00,25.5,23.5,30.26,SW,228,0.0,0.0,92,0.00,,,0.00,meteohub,2013-03-29 08:02:00,
2013-03-29 04:12:00,25.3,23.4,30.25,SSW,211,0.0,0.0,92,0.00,,,0.00,meteohub,2013-03-29 08:12:00,
2013-03-29 04:22:00,25.5,23.5,30.26,SSW,211,0.0,0.0,92,0.00,,,0.00,meteohub,2013-03-29 08:22:00,
2013-03-29 04:27:00,25.5,23.5,30.26,West,281,0.0,0.0,92,0.00,,,0.00,meteohub,2013-03-29 08:27:00,
2013-03-29 04:32:00,25.7,23.7,30.26,West,277,0.0,0.0,92,0.00,,,0.00,meteohub,2013-03-29 08:32:00,
2013-03-29 04:37:00,25.7,23.7,30.26,West,277,1.0,1.0,92,0.00,,,0.00,meteohub,2013-03-29 08:37:00,
2013-03-29 04:42:00,25.7,23.7,30.26,WNW,284,0.0,1.0,92,0.00,,,0.00,meteohub,2013-03-29 08:42:00,
2013-03-29 04:47:00,25.5,23.5,30.26,West,262,0.0,1.0,92,0.00,,,0.00,meteohub,2013-03-29 08:47:00,
2013-03-29 04:52:00,25.3,23.0,30.26,West,260,0.0,1.0,91,0.00,,,0.00,meteohub,2013-03-29 08:52:00,
2013-03-29 04:57:00,25.2,22.8,30.26,West,260,0.0,1.0,91,0.00,,,0.00,meteohub,2013-03-29 08:57:00,
2013-03-29 05:07:00,25.2,23.2,30.26,NW,326,0.0,1.0,92,0.00,,,0.00,meteohub,2013-03-29 09:07:00,
2013-03-29 05:17:00,25.0,23.0,30.26,NW,326,0.0,1.0,92,0.00,,,0.00,meteohub,2013-03-29 09:17:00,
2013-03-29 05:27:00,24.6,22.6,30.26,NW,326,0.0,0.0,92,0.00,,,0.00,meteohub,2013-03-29 09:27:00,
2013-03-29 05:32:00,24.6,22.6,30.26,NW,326,0.0,0.0,92,0.00,,,0.00,meteohub,2013-03-29 09:32:00,
2013-03-29 05:37:00,24.8,23.0,30.26,NW,326,0.0,0.0,93,0.00,,,0.00,meteohub,2013-03-29 09:37:00,
2013-03-29 05:42:00,25.0,23.2,30.26,NW,326,0.0,0.0,93,0.00,,,0.00,meteohub,2013-03-29 09:42:00,
2013-03-29 05:47:00,24.6,22.6,30.26,WSW,239,0.0,0.0,92,0.00,,,0.00,meteohub,2013-03-29 09:47:00,
2013-03-29 05:52:00,24.6,22.6,30.26,WSW,239,0.0,1.0,92,0.00,,,0.00,meteohub,2013-03-29 09:52:00,
2013-03-29 06:02:00,24.4,22.5,30.26,SW,228,0.0,1.0,92,0.00,,,0.00,meteohub,2013-03-29 10:02:00,
2013-03-29 06:07:00,24.4,22.6,30.26,WNW,300,0.0,1.0,93,0.00,,,0.00,meteohub,2013-03-29 10:07:00,
2013-03-29 06:12:00,24.4,22.6,30.26,WNW,284,0.0,1.0,93,0.00,,,0.00,meteohub,2013-03-29 10:12:00,
2013-03-29 06:17:00,24.6,22.8,30.26,WNW,285,1.0,1.0,93,0.00,,,0.00,meteohub,2013-03-29 10:17:00,
2013-03-29 06:27:00,24.6,22.8,30.26,SW,221,0.0,2.0,93,0.00,,,0.00,meteohub,2013-03-29 10:27:00,
2013-03-29 06:37:00,24.8,23.0,30.27,SW,214,1.0,1.0,93,0.00,,,0.00,meteohub,2013-03-29 10:37:00,
2013-03-29 06:42:00,24.6,22.8,30.26,SW,214,0.0,1.0,93,0.00,,,0.00,meteohub,2013-03-29 10:42:00,
2013-03-29 06:47:00,24.6,22.8,30.26,SW,214,0.0,1.0,93,0.00,,,0.00,meteohub,2013-03-29 10:47:00,
2013-03-29 06:52:00,24.6,22.8,30.26,SW,214,1.0,1.0,93,0.00,,,0.00,meteohub,2013-03-29 10:52:00,
2013-03-29 06:57:00,24.6,22.8,30.27,NW,316,2.0,2.0,93,0.00,,,0.00,meteohub,2013-03-29 10:57:00,
2013-03-29 07:02:00,24.6,22.8,30.27,NW,307,0.0,2.0,93,0.00,,,0.00,meteohub,2013-03-29 11:02:00,
2013-03-29 07:07:00,24.6,22.8,30.27,WNW,290,1.0,2.0,93,0.00,,,0.00,meteohub,2013-03-29 11:07:00,
2013-03-29 07:12:00,24.6,22.8,30.27,WNW,290,1.0,2.0,93,0.00,,,0.00,meteohub,2013-03-29 11:12:00,
2013-03-29 07:22:00,24.4,22.5,30.27,West,271,0.0,1.0,92,0.00,,,0.00,meteohub,2013-03-29 11:22:00,
2013-03-29 07:27:00,24.4,22.5,30.27,West,271,0.0,1.0,92,0.00,,,0.00,meteohub,2013-03-29 11:27:00,
2013-03-29 07:37:00,24.4,22.6,30.27,West,273,1.0,1.0,93,0.00,,,0.00,meteohub,2013-03-29 11:37:00,
2013-03-29 07:47:00,24.4,22.5,30.27,WSW,257,0.0,1.0,92,0.00,,,0.00,meteohub,2013-03-29 11:47:00,
2013-03-29 07:52:00,24.4,22.6,30.27,WSW,257,0.0,1.0,93,0.00,,,0.00,meteohub,2013-03-29 11:52:00,
2013-03-29 08:02:00,24.3,22.5,30.27,WSW,257,0.0,1.0,93,0.00,,,0.00,meteohub,2013-03-29 12:02:00,
2013-03-29 08:07:00,24.4,22.6,30.27,WSW,257,0.0,1.0,93,0.00,,,0.00,meteohub,2013-03-29 12:07:00,
2013-03-29 08:17:00,25.2,23.2,30.27,WSW,257,0.0,1.0,92,0.00,,,0.00,meteohub,2013-03-29 12:17:00,
2013-03-29 08:27:00,26.1,24.1,30.27,SSW,207,0.0,1.0,92,0.00,,,0.00,meteohub,2013-03-29 12:27:00,
2013-03-29 08:32:00,26.4,24.4,30.27,SSW,207,0.0,1.0,92,0.00,,,0.00,meteohub,2013-03-29 12:32:00,
2013-03-29 08:37:00,27.0,25.0,30.27,SSW,207,0.0,1.0,92,0.00,,,0.00,meteohub,2013-03-29 12:37:00,
2013-03-29 08:42:00,27.3,25.0,30.28,SW,221,1.0,1.0,91,0.00,,,0.00,meteohub,2013-03-29 12:42:00,
2013-03-29 08:47:00,27.1,24.6,30.28,SW,229,1.0,2.0,90,0.00,,,0.00,meteohub,2013-03-29 12:47:00,
2013-03-29 08:57:00,27.1,24.6,30.28,SSW,204,1.0,3.0,90,0.00,,,0.00,meteohub,2013-03-29 12:57:00,
2013-03-29 09:02:00,27.3,25.0,30.28,SSW,208,2.0,3.0,91,0.00,,,0.00,meteohub,2013-03-29 13:02:00,
2013-03-29 09:07:00,27.9,25.5,30.29,SW,217,0.0,3.0,91,0.00,,,0.00,meteohub,2013-03-29 13:07:00,
2013-03-29 09:12:00,28.6,26.6,30.29,SW,219,0.0,2.0,92,0.00,,,0.00,meteohub,2013-03-29 13:12:00,
2013-03-29 09:17:00,29.5,27.5,30.29,SW,218,0.0,2.0,92,0.00,,,0.00,meteohub,2013-03-29 13:17:00,
2013-03-29 09:27:00,30.6,27.7,30.29,SW,215,0.0,0.0,89,0.00,,,0.00,meteohub,2013-03-29 13:27:00,
2013-03-29 09:32:00,30.9,28.0,30.29,North,349,0.0,0.0,89,0.00,,,0.00,meteohub,2013-03-29 13:32:00,
2013-03-29 09:37:00,31.6,28.8,30.29,North,349,0.0,0.0,89,0.00,,,0.00,meteohub,2013-03-29 13:37:00,
2013-03-29 09:42:00,31.8,28.0,30.29,SSW,205,0.0,0.0,86,0.00,,,0.00,meteohub,2013-03-29 13:42:00,
2013-03-29 09:52:00,32.7,28.9,30.29,South,173,0.0,2.0,86,0.00,,,0.00,meteohub,2013-03-29 13:52:00,
2013-03-29 09:57:00,34.0,30.6,30.29,ENE,76,2.0,2.0,87,0.00,,,0.00,meteohub,2013-03-29 13:57:00,
2013-03-29 10:07:00,35.1,30.9,30.28,NE,46,0.0,2.0,85,0.00,,,0.00,meteohub,2013-03-29 14:07:00,
2013-03-29 10:12:00,35.8,30.7,30.28,SW,214,1.0,2.0,82,0.00,,,0.00,meteohub,2013-03-29 14:12:00,
2013-03-29 10:17:00,36.5,31.8,30.28,SW,218,1.0,2.0,83,0.00,,,0.00,meteohub,2013-03-29 14:17:00,
2013-03-29 10:22:00,37.0,31.8,30.28,SW,214,0.0,2.0,81,0.00,,,0.00,meteohub,2013-03-29 14:22:00,
2013-03-29 10:27:00,38.1,32.2,30.28,SSW,207,1.0,1.0,79,0.00,,,0.00,meteohub,2013-03-29 14:27:00,
2013-03-29 10:37:00,40.3,33.1,30.27,SSW,198,0.0,2.0,75,0.00,,,0.00,meteohub,2013-03-29 14:37:00,
2013-03-29 10:42:00,41.5,33.6,30.27,SSW,198,0.0,2.0,73,0.00,,,0.00,meteohub,2013-03-29 14:42:00,
2013-03-29 10:47:00,42.4,33.6,30.27,SSW,205,0.0,1.0,71,0.00,,,0.00,meteohub,2013-03-29 14:47:00,
2013-03-29 10:52:00,43.7,34.2,30.27,SSW,211,0.0,1.0,69,0.00,,,0.00,meteohub,2013-03-29 14:52:00,
2013-03-29 10:57:00,43.7,34.2,30.27,SW,229,0.0,1.0,69,0.00,,,0.00,meteohub,2013-03-29 14:57:00,
2013-03-29 11:02:00,43.9,34.7,30.27,SW,226,1.0,2.0,70,0.00,,,0.00,meteohub,2013-03-29 15:02:00,
2013-03-29 11:07:00,44.8,35.6,30.27,South,190,0.0,2.0,70,0.00,,,0.00,meteohub,2013-03-29 15:07:00,
2013-03-29 11:12:00,45.1,32.9,30.27,NNE,14,2.0,2.0,62,0.00,,,0.00,meteohub,2013-03-29 15:12:00,
2013-03-29 11:22:00,45.9,34.0,30.26,SSE,153,0.0,4.0,63,0.00,,,0.00,meteohub,2013-03-29 15:22:00,
2013-03-29 11:27:00,46.8,34.0,30.26,SE,129,0.0,3.0,61,0.00,,,0.00,meteohub,2013-03-29 15:27:00,
2013-03-29 11:37:00,48.7,34.7,30.26,ESE,120,0.0,3.0,58,0.00,,,0.00,meteohub,2013-03-29 15:37:00,
2013-03-29 11:42:00,49.1,32.7,30.26,North,0,1.0,3.0,53,0.00,,,0.00,meteohub,2013-03-29 15:42:00,
2013-03-29 11:52:00,49.8,34.7,30.26,East,97,1.0,5.0,56,0.00,,,0.00,meteohub,2013-03-29 15:52:00,
2013-03-29 11:57:00,50.7,34.2,30.25,SSE,148,0.0,5.0,53,0.00,,,0.00,meteohub,2013-03-29 15:57:00,
2013-03-29 12:02:00,51.1,33.6,30.25,NNE,32,3.0,3.0,51,0.00,,,0.00,meteohub,2013-03-29 16:02:00,
2013-03-29 12:12:00,51.1,34.5,30.25,SE,132,0.0,3.0,53,0.00,,,0.00,meteohub,2013-03-29 16:12:00,
2013-03-29 12:17:00,52.5,34.0,30.25,ESE,109,0.0,3.0,49,0.00,,,0.00,meteohub,2013-03-29 16:17:00,
2013-03-29 12:22:00,52.5,34.0,30.24,ENE,68,1.0,1.0,49,0.00,,,0.00,meteohub,2013-03-29 16:22:00,
2013-03-29 12:27:00,52.7,33.1,30.24,NNE,21,1.0,2.0,47,0.00,,,0.00,meteohub,2013-03-29 16:27:00,
2013-03-29 12:32:00,51.6,33.1,30.24,NNE,32,2.0,3.0,49,0.00,,,0.00,meteohub,2013-03-29 16:32:00,
2013-03-29 12:42:00,52.9,33.3,30.23,SSW,209,4.0,4.0,47,0.00,,,0.00,meteohub,2013-03-29 16:42:00,
2013-03-29 12:47:00,52.7,33.6,30.23,NNE,22,4.0,5.0,48,0.00,,,0.00,meteohub,2013-03-29 16:47:00,
2013-03-29 12:52:00,53.4,32.5,30.23,NE,54,1.0,5.0,45,0.00,,,0.00,meteohub,2013-03-29 16:52:00,
2013-03-29 12:57:00,52.2,32.0,30.22,North,0,3.0,5.0,46,0.00,,,0.00,meteohub,2013-03-29 16:57:00,
2013-03-29 13:07:00,51.6,32.0,30.22,West,260,0.0,6.0,47,0.00,,,0.00,meteohub,2013-03-29 17:07:00,
2013-03-29 13:12:00,53.1,32.9,30.22,SE,146,1.0,5.0,46,0.00,,,0.00,meteohub,2013-03-29 17:12:00,
2013-03-29 13:17:00,54.1,32.2,30.21,South,174,3.0,4.0,43,0.00,,,0.00,meteohub,2013-03-29 17:17:00,
2013-03-29 13:22:00,53.2,30.2,30.21,SSE,162,5.0,8.0,41,0.00,,,0.00,meteohub,2013-03-29 17:22:00,
2013-03-29 13:32:00,53.8,31.3,30.20,NNE,23,3.0,10.0,42,0.00,,,0.00,meteohub,2013-03-29 17:32:00,
2013-03-29 13:37:00,54.1,31.5,30.20,NW,323,2.0,10.0,42,0.00,,,0.00,meteohub,2013-03-29 17:37:00,
2013-03-29 13:42:00,54.0,32.0,30.20,NNE,20,2.0,10.0,43,0.00,,,0.00,meteohub,2013-03-29 17:42:00,
2013-03-29 13:52:00,54.0,31.5,30.19,East,92,1.0,12.0,42,0.00,,,0.00,meteohub,2013-03-29 17:52:00,
2013-03-29 13:57:00,55.0,30.6,30.19,West,276,0.0,12.0,39,0.00,,,0.00,meteohub,2013-03-29 17:57:00,
2013-03-29 14:02:00,54.7,30.9,30.19,South,190,3.0,9.0,40,0.00,,,0.00,meteohub,2013-03-29 18:02:00,
2013-03-29 14:07:00,54.9,31.6,30.18,SW,222,3.0,9.0,41,0.00,,,0.00,meteohub,2013-03-29 18:07:00,
2013-03-29 14:17:00,54.7,29.5,30.18,SSW,211,4.0,9.0,38,0.00,,,0.00,meteohub,2013-03-29 18:17:00,
2013-03-29 14:22:00,54.7,31.5,30.18,NE,34,3.0,9.0,41,0.00,,,0.00,meteohub,2013-03-29 18:22:00,
2013-03-29 14:27:00,55.0,31.8,30.17,West,271,1.0,8.0,41,0.00,,,0.00,meteohub,2013-03-29 18:27:00,
2013-03-29 14:37:00,54.7,27.5,30.17,WNW,300,2.0,8.0,35,0.00,,,0.00,meteohub,2013-03-29 18:37:00,
2013-03-29 14:47:00,55.4,27.5,30.17,SW,233,2.0,7.0,34,0.00,,,0.00,meteohub,2013-03-29 18:47:00,
2013-03-29 14:52:00,55.4,28.2,30.17,NNW,342,3.0,7.0,35,0.00,,,0.00,meteohub,2013-03-29 18:52:00,
2013-03-29 15:02:00,55.8,29.1,30.16,SW,218,1.0,7.0,36,0.00,,,0.00,meteohub,2013-03-29 19:02:00,
2013-03-29 15:07:00,55.2,29.5,30.16,WSW,250,4.0,9.0,37,0.00,,,0.00,meteohub,2013-03-29 19:07:00,
2013-03-29 15:12:00,55.4,28.9,30.16,WNW,293,4.0,9.0,36,0.00,,,0.00,meteohub,2013-03-29 19:12:00,
2013-03-29 15:17:00,55.9,28.8,30.15,WNW,285,7.0,9.0,35,0.00,,,0.00,meteohub,2013-03-29 19:17:00,
2013-03-29 15:22:00,55.8,28.6,30.15,NNW,345,3.0,8.0,35,0.00,,,0.00,meteohub,2013-03-29 19:22:00,
2013-03-29 15:32:00,55.6,29.7,30.15,South,174,3.0,8.0,37,0.00,,,0.00,meteohub,2013-03-29 19:32:00,
2013-03-29 15:37:00,56.1,29.5,30.14,NW,306,2.0,8.0,36,0.00,,,0.00,meteohub,2013-03-29 19:37:00,
2013-03-29 15:47:00,55.8,29.1,30.14,West,276,7.0,9.0,36,0.00,,,0.00,meteohub,2013-03-29 19:47:00,
2013-03-29 15:52:00,55.4,28.2,30.14,WNW,298,2.0,9.0,35,0.00,,,0.00,meteohub,2013-03-29 19:52:00,
2013-03-29 15:57:00,55.6,29.1,30.14,SW,236,0.0,9.0,36,0.00,,,0.00,meteohub,2013-03-29 19:57:00,
2013-03-29 16:02:00,56.1,29.5,30.14,ENE,64,0.0,8.0,36,0.00,,,0.00,meteohub,2013-03-29 20:02:00,
2013-03-29 16:12:00,57.2,29.8,30.13,ENE,58,1.0,5.0,35,0.00,,,0.00,meteohub,2013-03-29 20:12:00,
2013-03-29 16:17:00,57.6,30.0,30.13,SW,228,2.0,5.0,35,0.00,,,0.00,meteohub,2013-03-29 20:17:00,
2013-03-29 16:22:00,56.8,30.2,30.13,SW,219,1.0,3.0,36,0.00,,,0.00,meteohub,2013-03-29 20:22:00,
2013-03-29 16:32:00,57.0,30.4,30.13,SSW,193,5.0,5.0,36,0.00,,,0.00,meteohub,2013-03-29 20:32:00,
2013-03-29 16:37:00,56.1,30.2,30.13,South,191,3.0,7.0,37,0.00,,,0.00,meteohub,2013-03-29 20:37:00,
2013-03-29 16:42:00,56.5,30.6,30.13,NNE,32,1.0,7.0,37,0.00,,,0.00,meteohub,2013-03-29 20:42:00,
2013-03-29 16:52:00,56.7,32.0,30.12,NW,325,4.0,6.0,39,0.00,,,0.00,meteohub,2013-03-29 20:52:00,
2013-03-29 17:02:00,55.9,31.3,30.12,NW,326,4.0,8.0,39,0.00,,,0.00,meteohub,2013-03-29 21:02:00,
2013-03-29 17:07:00,55.8,30.6,30.12,NW,320,0.0,8.0,38,0.00,,,0.00,meteohub,2013-03-29 21:07:00,
2013-03-29 17:12:00,55.9,31.3,30.12,NNW,335,3.0,10.0,39,0.00,,,0.00,meteohub,2013-03-29 21:12:00,
2013-03-29 17:17:00,55.9,32.0,30.12,NNW,327,1.0,10.0,40,0.00,,,0.00,meteohub,2013-03-29 21:17:00,
2013-03-29 17:22:00,56.1,30.9,30.12,NW,312,2.0,6.0,38,0.00,,,0.00,meteohub,2013-03-29 21:22:00,
2013-03-29 17:27:00,56.1,32.2,30.12,WNW,293,5.0,6.0,40,0.00,,,0.00,meteohub,2013-03-29 21:27:00,
2013-03-29 17:32:00,55.4,32.0,30.12,SW,236,3.0,8.0,41,0.00,,,0.00,meteohub,2013-03-29 21:32:00,
2013-03-29 17:37:00,55.2,31.3,30.12,WNW,285,4.0,8.0,40,0.00,,,0.00,meteohub,2013-03-29 21:37:00,
2013-03-29 17:42:00,55.4,31.5,30.12,West,281,3.0,8.0,40,0.00,,,0.00,meteohub,2013-03-29 21:42:00,
2013-03-29 17:47:00,55.2,32.5,30.11,SW,230,3.0,6.0,42,0.00,,,0.00,meteohub,2013-03-29 21:47:00,
2013-03-29 17:52:00,55.0,32.9,30.11,WSW,254,0.0,6.0,43,0.00,,,0.00,meteohub,2013-03-29 21:52:00,
2013-03-29 17:57:00,55.2,33.1,30.11,NW,309,5.0,5.0,43,0.00,,,0.00,meteohub,2013-03-29 21:57:00,
2013-03-29 18:07:00,54.9,30.9,30.12,North,349,4.0,10.0,40,0.00,,,0.00,meteohub,2013-03-29 22:07:00,
2013-03-29 18:17:00,55.0,32.4,30.12,NNW,337,2.0,10.0,42,0.00,,,0.00,meteohub,2013-03-29 22:17:00,
2013-03-29 18:22:00,55.0,31.1,30.12,West,273,1.0,8.0,40,0.00,,,0.00,meteohub,2013-03-29 22:22:00,
2013-03-29 18:27:00,54.5,32.5,30.12,WSW,239,3.0,6.0,43,0.00,,,0.00,meteohub,2013-03-29 22:27:00,
2013-03-29 18:32:00,54.0,32.0,30.12,SSW,203,4.0,4.0,43,0.00,,,0.00,meteohub,2013-03-29 22:32:00,
2013-03-29 18:37:00,54.3,31.1,30.12,NW,323,2.0,5.0,41,0.00,,,0.00,meteohub,2013-03-29 22:37:00,
2013-03-29 18:47:00,54.7,31.5,30.12,WNW,294,4.0,5.0,41,0.00,,,0.00,meteohub,2013-03-29 22:47:00,
2013-03-29 18:52:00,54.9,31.6,30.12,WNW,291,7.0,7.0,41,0.00,,,0.00,meteohub,2013-03-29 22:52:00,
2013-03-29 19:02:00,53.8,31.8,30.12,WSW,248,3.0,7.0,43,0.00,,,0.00,meteohub,2013-03-29 23:02:00,
2013-03-29 19:12:00,53.8,32.9,30.12,SW,217,2.0,4.0,45,0.00,,,0.00,meteohub,2013-03-29 23:12:00,
2013-03-29 19:17:00,53.2,32.4,30.12,SW,214,3.0,4.0,45,0.00,,,0.00,meteohub,2013-03-29 23:17:00,
2013-03-29 19:27:00,52.5,32.4,30.12,SW,214,2.0,4.0,46,0.00,,,0.00,meteohub,2013-03-29 23:27:00,
2013-03-29 19:32:00,51.8,32.2,30.12,SW,228,2.0,4.0,47,0.00,,,0.00,meteohub,2013-03-29 23:32:00,
2013-03-29 19:42:00,50.5,32.5,30.12,SW,232,2.0,3.0,50,0.00,,,0.00,meteohub,2013-03-29 23:42:00,
2013-03-29 19:52:00,49.6,32.7,30.12,SW,218,1.0,3.0,52,0.00,,,0.00,meteohub,2013-03-29 23:52:00,
2013-03-29 19:57:00,49.5,33.1,30.12,SW,223,1.0,2.0,53,0.00,,,0.00,meteohub,2013-03-29 23:57:00,
2013-03-29 20:07:00,48.4,33.4,30.12,South,186,1.0,2.0,56,0.00,,,0.00,meteohub,2013-03-30 00:07:00,
2013-03-29 20:12:00,47.8,33.8,30.12,South,186,0.0,2.0,58,0.00,,,0.00,meteohub,2013-03-30 00:12:00,
2013-03-29 20:17:00,47.3,33.3,30.12,South,186,0.0,1.0,58,0.00,,,0.00,meteohub,2013-03-30 00:17:00,
2013-03-29 20:27:00,46.4,34.5,30.12,SW,215,1.0,1.0,63,0.00,,,0.00,meteohub,2013-03-30 00:27:00,
2013-03-29 20:32:00,46.0,34.2,30.12,SSW,204,0.0,1.0,63,0.00,,,0.00,meteohub,2013-03-30 00:32:00,
2013-03-29 20:37:00,45.9,33.6,30.13,SW,218,0.0,1.0,62,0.00,,,0.00,meteohub,2013-03-30 00:37:00,
2013-03-29 20:47:00,45.3,33.4,30.13,SW,214,0.0,1.0,63,0.00,,,0.00,meteohub,2013-03-30 00:47:00,
2013-03-29 20:52:00,45.1,34.2,30.13,SW,228,0.0,1.0,65,0.00,,,0.00,meteohub,2013-03-30 00:52:00,
2013-03-29 21:02:00,44.6,34.0,30.13,SW,225,0.0,0.0,66,0.00,,,0.00,meteohub,2013-03-30 01:02:00,
2013-03-29 21:07:00,44.8,34.2,30.13,SSE,156,0.0,0.0,66,0.00,,,0.00,meteohub,2013-03-30 01:07:00,
2013-03-29 21:12:00,44.4,33.8,30.13,SSE,156,0.0,2.0,66,0.00,,,0.00,meteohub,2013-03-30 01:12:00,
2013-03-29 21:22:00,44.1,34.2,30.14,SSW,204,0.0,0.0,68,0.00,,,0.00,meteohub,2013-03-30 01:22:00,
2013-03-29 21:27:00,43.9,34.0,30.14,SSW,200,0.0,0.0,68,0.00,,,0.00,meteohub,2013-03-30 01:27:00,
2013-03-29 21:32:00,43.5,34.3,30.14,SSW,200,0.0,0.0,70,0.00,,,0.00,meteohub,2013-03-30 01:32:00,
2013-03-29 21:42:00,43.3,35.2,30.14,SSW,208,0.0,0.0,73,0.00,,,0.00,meteohub,2013-03-30 01:42:00,
2013-03-29 21:52:00,42.6,34.2,30.15,SSW,201,0.0,0.0,72,0.00,,,0.00,meteohub,2013-03-30 01:52:00,
2013-03-29 21:57:00,42.3,34.2,30.15,SW,224,0.0,0.0,73,0.00,,,0.00,meteohub,2013-03-30 01:57:00,
2013-03-29 22:07:00,41.9,34.2,30.15,SW,217,0.0,0.0,74,0.00,,,0.00,meteohub,2013-03-30 02:07:00,
2013-03-29 22:12:00,41.7,34.0,30.15,SSW,201,0.0,0.0,74,0.00,,,0.00,meteohub,2013-03-30 02:12:00,
2013-03-29 22:22:00,42.3,33.8,30.15,SSW,197,0.0,0.0,72,0.00,,,0.00,meteohub,2013-03-30 02:22:00,
2013-03-29 22:27:00,41.5,33.6,30.15,SSW,194,0.0,0.0,73,0.00,,,0.00,meteohub,2013-03-30 02:27:00,
2013-03-29 22:37:00,40.8,33.8,30.15,SSW,198,0.0,0.0,76,0.00,,,0.00,meteohub,2013-03-30 02:37:00,
2013-03-29 22:42:00,40.5,33.4,30.16,SSW,201,0.0,0.0,76,0.00,,,0.00,meteohub,2013-03-30 02:42:00,
2013-03-29 22:47:00,40.3,33.6,30.16,SW,233,0.0,0.0,77,0.00,,,0.00,meteohub,2013-03-30 02:47:00,
2013-03-29 22:57:00,39.9,33.6,30.16,SW,231,0.0,0.0,78,0.00,,,0.00,meteohub,2013-03-30 02:57:00,
2013-03-29 23:02:00,39.7,33.4,30.16,SW,224,0.0,0.0,78,0.00,,,0.00,meteohub,2013-03-30 03:02:00,
2013-03-29 23:12:00,39.6,33.6,30.16,SW,222,0.0,0.0,79,0.00,,,0.00,meteohub,2013-03-30 03:12:00,
2013-03-29 23:22:00,40.1,33.4,30.16,SW,222,0.0,0.0,77,0.00,,,0.00,meteohub,2013-03-30 03:22:00,
2013-03-29 23:27:00,39.9,33.6,30.17,SW,226,0.0,0.0,78,0.00,,,0.00,meteohub,2013-03-30 03:27:00,
2013-03-29 23:32:00,39.6,33.3,30.17,SW,236,0.0,0.0,78,0.00,,,0.00,meteohub,2013-03-30 03:32:00,
2013-03-29 23:37:00,39.2,33.3,30.17,SSW,210,0.0,0.0,79,0.00,,,0.00,meteohub,2013-03-30 03:37:00,
2013-03-29 23:47:00,38.7,33.1,30.17,SW,228,0.0,0.0,80,0.00,,,0.00,meteohub,2013-03-30 03:47:00,
2013-03-29 23:52:00,38.5,32.9,30.16,SW,229,0.0,0.0,80,0.00,,,0.00,meteohub,2013-03-30 03:52:00,